EA5BZ Weather Reports


time (UTC)temp
C
wind
direction
speed
KPH
gust
KPH
rain 1hr
cm
rain 24hr
cm
rain mn
cm
humidity
%
barometer
mb
20260507003016 16 0 3.2 12.9 0.00 0.00 0.00 78 1012.4
20260507002516 16 0 8.0 12.9 0.00 0.00 0.00 78 1012.3
20260507002016 16 0 4.8 8.0 0.00 0.00 0.00 78 1012.4
20260507001516 16 0 4.8 11.3 0.00 0.00 0.00 78 1012.5
20260507001016 16 0 4.8 11.3 0.00 0.00 0.00 78 1012.5
20260507000516 16 0 4.8 12.9 0.00 0.00 0.00 78 1012.6
20260507000016 16 338 4.8 9.7 0.00 0.00 0.00 78 1012.7
20260506235516 16 338 4.8 11.3 0.00 0.00 0.00 78 1012.7
20260506235016 16 0 4.8 11.3 0.00 0.00 0.00 78 1012.8
20260506234516 16 0 4.8 11.3 0.00 0.00 0.00 78 1012.8
20260506234016 16 0 4.8 8.0 0.00 0.00 0.00 79 1012.8
20260506233536 16 0 4.8 11.3 0.00 0.00 0.00 79 1012.8
20260506233016 16 0 4.8 14.5 0.00 0.00 0.00 79 1012.8
20260506232516 16 0 4.8 14.5 0.00 0.00 0.00 79 1012.8
20260506232036 16 0 4.8 9.7 0.00 0.00 0.00 79 1012.8
20260506231516 16 0 4.8 12.9 0.00 0.00 0.00 79 1012.8
20260506231016 16 0 4.8 9.7 0.00 0.00 0.00 79 1012.8
20260506230616 16 0 4.8 8.0 0.00 0.00 0.00 79 1012.8
20260506230016 16 0 4.8 9.7 0.00 0.00 0.00 79 1012.9
20260506225516 16 0 6.4 12.9 0.00 0.00 0.00 79 1012.9
20260506225016 16 0 6.4 12.9 0.00 0.00 0.00 79 1012.9
20260506224516 16 0 6.4 12.9 0.00 0.00 0.00 79 1012.9
20260506224016 16 0 6.4 12.9 0.00 0.00 0.00 79 1012.8
20260506223516 16 23 6.4 12.9 0.00 0.00 0.00 79 1012.9
20260506223016 16 23 6.4 12.9 0.00 0.00 0.00 79 1012.8
20260506222516 16 0 4.8 9.7 0.00 0.00 0.00 80 1012.8
20260506222016 16 23 4.8 12.9 0.00 0.00 0.00 80 1012.8
20260506221516 16 68 3.2 8.0 0.00 0.00 0.00 80 1012.9
20260506221016 16 68 3.2 8.0 0.00 0.00 0.00 80 1013.0
20260506220515 16 45 3.2 9.7 0.00 0.00 0.00 80 1013.0
20260506220016 17 68 1.6 8.0 0.00 0.00 0.00 80 1013.0
20260506215517 17 23 1.6 6.4 0.00 0.00 0.00 79 1013.1
20260506215017 17 68 1.6 8.0 0.00 0.00 0.00 79 1013.0
20260506214517 17 45 1.6 4.8 0.00 0.00 0.00 79 1013.1
20260506214037 17 45 1.6 4.8 0.00 0.00 0.00 79 1013.2
20260506213516 17 45 1.6 4.8 0.00 0.00 0.00 79 1013.4
20260506213016 17 0.0 4.8 0.00 0.00 0.00 79 1013.4
20260506212517 17 0.0 3.2 0.00 0.00 0.00 79 1013.4
20260506212036 17 0.0 4.8 0.00 0.00 0.00 79 1013.5
20260506211517 17 0.0 4.8 0.00 0.00 0.00 79 1013.4
20260506211017 17 45 1.6 6.4 0.00 0.00 0.00 79 1013.3
20260506210516 17 45 3.2 8.0 0.00 0.00 0.00 79 1013.3
20260506210017 17 45 1.6 6.4 0.00 0.00 0.00 79 1013.2
20260506205536 17 45 3.2 6.4 0.00 0.00 0.00 79 1013.1
20260506205017 17 45 3.2 8.0 0.00 0.00 0.00 79 1013.1
20260506204516 17 68 3.2 8.0 0.00 0.00 0.00 79 1013.2
20260506204016 17 68 1.6 6.4 0.00 0.00 0.00 79 1013.2
20260506203516 17 68 1.6 4.8 0.00 0.00 0.00 79 1013.1
20260506203016 17 68 1.6 6.4 0.00 0.00 0.00 79 1013.0
20260506202517 17 68 1.6 4.8 0.00 0.00 0.00 79 1012.9
20260506202017 17 68 3.2 6.4 0.00 0.00 0.00 79 1012.9
20260506201516 17 68 3.2 6.4 0.00 0.00 0.00 78 1012.8
20260506201017 17 90 3.2 8.0 0.00 0.00 0.00 78 1012.8
20260506200537 17 90 1.6 6.4 0.00 0.00 0.00 78 1012.8
20260506200037 17 90 3.2 8.0 0.00 0.00 0.00 78 1012.6
20260506195517 17 90 1.6 4.8 0.00 0.00 0.00 78 1012.6
20260506195016 17 90 3.2 6.4 0.00 0.00 0.00 77 1012.4
20260506194517 17 90 4.8 8.0 0.00 0.00 0.00 77 1012.3
20260506194016 17 68 3.2 6.4 0.00 0.00 0.00 77 1012.4
20260506193516 17 45 4.8 11.3 0.00 0.00 0.00 77 1012.3
20260506193016 17 90 3.2 8.0 0.00 0.00 0.00 77 1012.2
20260506192537 17 68 4.8 11.3 0.00 0.00 0.00 77 1012.2
20260506192016 17 68 8.0 16.1 0.00 0.00 0.00 77 1012.1
20260506191516 17 90 11.3 17.7 0.00 0.00 0.00 77 1012.0
20260506191016 17 68 9.7 17.7 0.00 0.00 0.00 77 1012.0
20260506190516 17 68 11.3 20.9 0.00 0.00 0.00 77 1012.0
20260506190017 17 68 17.7 25.7 0.00 0.00 0.00 77 1012.0
20260506185536 17 68 11.3 22.5 0.00 0.00 0.00 77 1012.0
20260506185016 17 68 12.9 20.9 0.00 0.00 0.00 77 1011.9
20260506184536 17 68 14.5 20.9 0.00 0.00 0.00 77 1011.9
20260506184016 17 68 8.0 22.5 0.00 0.00 0.00 77 1011.8
20260506183516 17 68 11.3 24.1 0.00 0.00 0.00 76 1011.8
20260506183016 17 68 12.9 24.1 0.00 0.00 0.00 76 1011.7
20260506182516 17 90 14.5 25.7 0.00 0.00 0.00 76 1011.7
20260506182016 17 68 20.9 29.0 0.00 0.00 0.00 75 1011.6
20260506181516 17 90 16.1 25.7 0.00 0.00 0.00 74 1011.6
20260506181036 17 68 19.3 29.0 0.00 0.00 0.00 74 1011.5
20260506180516 17 68 19.3 29.0 0.00 0.00 0.00 74 1011.6
20260506180016 17 90 12.9 24.1 0.00 0.00 0.00 74 1011.6
20260506175516 17 68 14.5 22.5 0.00 0.00 0.00 76 1011.7
20260506175016 17 68 12.9 19.3 0.00 0.00 0.00 76 1011.6
20260506174516 17 68 17.7 25.7 0.00 0.00 0.00 76 1011.6
20260506174016 18 68 17.7 25.7 0.00 0.00 0.00 76 1011.6
20260506173517 18 68 16.1 25.7 0.00 0.00 0.00 75 1011.7
20260506173056 18 68 17.7 29.0 0.00 0.00 0.00 75 1011.7
20260506172516 18 68 20.9 30.6 0.00 0.00 0.00 75 1011.6
20260506172016 18 90 19.3 30.6 0.00 0.00 0.00 75 1011.5
20260506171516 18 68 19.3 30.6 0.00 0.00 0.00 76 1011.5
20260506171017 18 68 24.1 35.4 0.00 0.00 0.00 75 1011.5
20260506170516 18 68 22.5 35.4 0.00 0.00 0.00 75 1011.4
20260506170016 18 68 17.7 30.6 0.00 0.00 0.00 75 1011.4
20260506165516 18 68 17.7 27.4 0.00 0.00 0.00 74 1011.4
20260506165016 18 68 19.3 33.8 0.00 0.00 0.00 75 1011.5
20260506164516 18 90 24.1 37.0 0.00 0.00 0.00 75 1011.3
20260506164016 18 68 19.3 32.2 0.00 0.00 0.00 74 1011.4
20260506163516 18 90 20.9 33.8 0.00 0.00 0.00 74 1011.4
20260506163036 18 68 27.4 37.0 0.00 0.00 0.00 73 1011.4
20260506162536 18 68 24.1 32.2 0.00 0.00 0.00 73 1011.3
20260506162016 18 90 25.7 37.0 0.00 0.00 0.00 73 1011.4
20260506161516 18 68 24.1 33.8 0.00 0.00 0.00 73 1011.4
20260506161036 18 68 24.1 38.6 0.00 0.00 0.00 71 1011.4
20260506160516 18 90 29.0 38.6 0.00 0.00 0.00 71 1011.2
20260506160016 19 90 24.1 33.8 0.00 0.00 0.00 70 1011.2
20260506155516 18 68 20.9 32.2 0.00 0.00 0.00 71 1011.1
20260506155016 19 68 24.1 38.6 0.00 0.00 0.00 70 1011.1
20260506154516 19 68 24.1 35.4 0.00 0.00 0.00 69 1011.2
20260506154016 19 90 20.9 32.2 0.00 0.00 0.00 70 1011.2
20260506153516 19 90 25.7 37.0 0.00 0.00 0.00 69 1011.2
20260506153016 19 90 25.7 35.4 0.00 0.00 0.00 69 1011.2
20260506152517 19 90 24.1 40.2 0.00 0.00 0.00 69 1011.3
20260506152016 19 90 22.5 33.8 0.00 0.00 0.00 69 1011.3
20260506151516 20 68 20.9 38.6 0.00 0.00 0.00 67 1011.3
20260506151016 20 68 22.5 35.4 0.00 0.00 0.00 68 1011.3
20260506150516 19 90 24.1 33.8 0.00 0.00 0.00 69 1011.3
20260506150016 19 90 27.4 40.2 0.00 0.00 0.00 69 1011.3
20260506145516 19 90 29.0 45.1 0.00 0.00 0.00 69 1011.4
20260506145016 19 68 24.1 38.6 0.00 0.00 0.00 68 1011.5
20260506144516 19 68 24.1 41.8 0.00 0.00 0.00 69 1011.5
20260506144016 19 68 27.4 38.6 0.00 0.00 0.00 69 1011.5
20260506143516 19 68 24.1 40.2 0.00 0.00 0.00 68 1011.7
20260506143016 19 68 24.1 38.6 0.00 0.00 0.00 69 1011.7
20260506142516 19 68 22.5 33.8 0.00 0.00 0.00 69 1011.7
20260506142016 19 68 24.1 40.2 0.00 0.00 0.00 69 1011.8
20260506141516 19 68 24.1 43.5 0.00 0.00 0.00 69 1011.8
20260506141016 19 68 27.4 40.2 0.00 0.00 0.00 70 1011.9
20260506140516 19 68 27.4 43.5 0.00 0.00 0.00 69 1011.8
20260506140016 19 90 25.7 38.6 0.00 0.00 0.00 69 1011.8
20260506135516 19 45 25.7 40.2 0.00 0.00 0.00 70 1011.9
20260506135016 19 68 27.4 40.2 0.00 0.00 0.00 71 1011.8
20260506134516 19 68 25.7 37.0 0.00 0.00 0.00 69 1011.9
20260506134016 19 68 27.4 46.7 0.00 0.00 0.00 70 1011.8
20260506133516 19 68 29.0 46.7 0.00 0.00 0.00 70 1011.8
20260506133016 19 68 27.4 41.8 0.00 0.00 0.00 70 1011.8
20260506132516 20 68 25.7 38.6 0.00 0.00 0.00 69 1011.9
20260506132016 19 68 22.5 37.0 0.00 0.00 0.00 71 1011.9
20260506131516 19 68 29.0 40.2 0.00 0.00 0.00 72 1011.9
20260506131016 19 68 27.4 40.2 0.00 0.00 0.00 71 1012.0
20260506130516 19 90 24.1 35.4 0.00 0.00 0.00 70 1012.0
20260506130016 19 68 27.4 45.1 0.00 0.00 0.00 69 1012.0
20260506125516 20 68 29.0 45.1 0.00 0.00 0.00 69 1012.0
20260506125016 20 68 25.7 40.2 0.00 0.00 0.00 68 1012.0
20260506124516 20 68 25.7 38.6 0.00 0.00 0.00 67 1012.1
20260506124016 20 68 24.1 32.2 0.00 0.00 0.00 67 1012.0
20260506123516 20 68 27.4 40.2 0.00 0.00 0.00 69 1012.1
20260506123016 20 68 24.1 43.5 0.00 0.00 0.00 68 1012.0
20260506122515 19 68 27.4 43.5 0.00 0.00 0.00 69 1012.0
20260506122016 19 68 25.7 37.0 0.00 0.00 0.00 69 1012.1
20260506121516 20 68 25.7 38.6 0.00 0.00 0.00 69 1012.2
20260506121016 20 68 29.0 40.2 0.00 0.00 0.00 68 1012.2
20260506120516 20 90 24.1 37.0 0.00 0.00 0.00 69 1012.2
20260506120016 20 68 27.4 40.2 0.00 0.00 0.00 68 1012.1
20260506115516 20 90 25.7 38.6 0.00 0.00 0.00 68 1012.2
20260506115016 20 90 24.1 32.2 0.00 0.00 0.00 69 1012.3
20260506114535 20 68 22.5 32.2 0.00 0.00 0.00 68 1012.3
20260506114015 20 90 24.1 37.0 0.00 0.00 0.00 68 1012.3
20260506113516 20 68 25.7 35.4 0.00 0.00 0.00 67 1012.3
20260506113016 20 68 24.1 35.4 0.00 0.00 0.00 67 1012.3
20260506112515 20 90 24.1 41.8 0.00 0.00 0.00 66 1012.3
20260506112015 20 90 24.1 33.8 0.00 0.00 0.00 65 1012.4
20260506111515 20 68 22.5 32.2 0.00 0.00 0.00 65 1012.4
20260506111016 20 90 19.3 29.0 0.00 0.00 0.00 65 1012.5
20260506110516 20 90 17.7 30.6 0.00 0.00 0.00 67 1012.6
20260506110015 20 90 24.1 37.0 0.00 0.00 0.00 68 1012.6
20260506105515 20 90 22.5 33.8 0.00 0.00 0.00 67 1012.6
20260506105016 20 68 19.3 30.6 0.00 0.00 0.00 67 1012.7
20260506104516 20 90 17.7 35.4 0.00 0.00 0.00 66 1012.7
20260506104016 20 68 17.7 30.6 0.00 0.00 0.00 63 1012.6
20260506103516 20 68 19.3 32.2 0.00 0.00 0.00 65 1012.6
20260506103015 20 68 22.5 38.6 0.00 0.00 0.00 66 1012.7
20260506102515 20 68 19.3 33.8 0.00 0.00 0.00 64 1012.7
20260506102016 20 90 19.3 32.2 0.00 0.00 0.00 64 1012.6
20260506101516 20 68 22.5 30.6 0.00 0.00 0.00 65 1012.6
20260506101016 20 68 25.7 41.8 0.00 0.00 0.00 63 1012.6
20260506100515 20 90 25.7 35.4 0.00 0.00 0.00 62 1012.7
20260506100016 20 68 20.9 33.8 0.00 0.00 0.00 65 1012.6
20260506095515 20 68 19.3 32.2 0.00 0.00 0.00 65 1012.6
20260506095015 20 68 20.9 35.4 0.00 0.00 0.00 65 1012.5
20260506094515 20 90 20.9 33.8 0.00 0.00 0.00 64 1012.6
20260506094015 20 68 19.3 29.0 0.00 0.00 0.00 63 1012.5
20260506093515 20 90 20.9 30.6 0.00 0.00 0.00 64 1012.5
20260506093015 20 68 16.1 25.7 0.00 0.00 0.00 65 1012.4
20260506092515 20 68 16.1 24.1 0.00 0.00 0.00 65 1012.4
20260506092015 20 68 9.7 24.1 0.00 0.00 0.00 65 1012.4
20260506091515 19 45 6.4 14.5 0.00 0.00 0.00 64 1012.2
20260506091015 19 45 8.0 14.5 0.00 0.00 0.00 65 1012.2
20260506090536 19 23 4.8 9.7 0.00 0.00 0.00 65 1012.2
20260506090035 19 90 8.0 17.7 0.00 0.00 0.00 65 1012.2
20260506085515 19 68 6.4 14.5 0.00 0.00 0.00 65 1012.2
20260506085015 20 68 8.0 16.1 0.00 0.00 0.00 64 1012.2
20260506084515 20 68 3.2 8.0 0.00 0.00 0.00 65 1012.2
20260506084015 20 113 8.0 16.1 0.00 0.00 0.00 65 1012.1
20260506083515 20 90 9.7 17.7 0.00 0.00 0.00 64 1012.2
20260506083015 20 90 1.6 9.7 0.00 0.00 0.00 65 1012.2
20260506082515 19 68 6.4 14.5 0.00 0.00 0.00 65 1012.1
20260506082015 20 68 4.8 14.5 0.00 0.00 0.00 66 1012.2
20260506081515 19 68 1.6 8.0 0.00 0.00 0.00 70 1012.2
20260506081015 18 45 1.6 8.0 0.00 0.00 0.00 71 1012.1
20260506080515 18 45 4.8 8.0 0.00 0.00 0.00 70 1012.2
20260506073017 19 0.0 4.8 0.00 0.00 0.00 70 1012.3
20260506072517 19 315 4.8 11.3 0.00 0.00 0.00 69 1012.2
20260506072017 19 293 4.8 9.7 0.00 0.00 0.00 69 1012.2
20260506071517 19 315 4.8 12.9 0.00 0.00 0.00 69 1012.2
20260506071017 18 293 4.8 12.9 0.00 0.00 0.00 69 1012.2
20260506070517 18 270 6.4 12.9 0.00 0.00 0.00 69 1012.2
20260506062517 17 270 4.8 12.9 0.00 0.00 0.00 71 1012.2
20260506062017 17 293 4.8 11.3 0.00 0.00 0.00 72 1012.2
20260506061517 17 270 3.2 12.9 0.00 0.00 0.00 73 1012.1
20260506061017 17 270 4.8 6.4 0.00 0.00 0.00 74 1012.2
20260506060517 16 270 4.8 9.7 0.00 0.00 0.00 74 1012.2
20260506051017 16 0 4.8 12.9 0.00 0.00 0.00 73 1011.6
20260506050517 16 0 4.8 9.7 0.00 0.00 0.00 72 1011.6
20260506045017 15 0 4.8 9.7 0.00 0.00 0.00 71 1011.4
20260506044517 15 338 6.4 12.9 0.00 0.00 0.00 71 1011.4
20260506044017 15 0 6.4 12.9 0.00 0.00 0.00 71 1011.4
20260506043537 15 0 6.4 9.7 0.00 0.00 0.00 71 1011.4
20260506043017 15 338 4.8 9.7 0.00 0.00 0.00 71 1011.4
20260506042517 16 0 4.8 9.7 0.00 0.00 0.00 71 1011.4
20260506042017 16 338 4.8 8.0 0.00 0.00 0.00 72 1011.4
20260506041537 16 338 3.2 6.4 0.00 0.00 0.00 72 1011.4
20260506041017 16 338 4.8 8.0 0.00 0.00 0.00 71 1011.3
20260506040517 16 338 4.8 8.0 0.00 0.00 0.00 71 1011.3
20260506040017 16 338 4.8 9.7 0.00 0.00 0.00 71 1011.3
20260506035537 16 315 4.8 8.0 0.00 0.00 0.00 71 1011.2
20260506035017 16 315 4.8 8.0 0.00 0.00 0.00 71 1011.2
20260506034517 16 293 4.8 8.0 0.00 0.00 0.00 72 1011.3
20260506034017 16 293 4.8 9.7 0.00 0.00 0.00 72 1011.3
20260506033517 16 315 8.0 12.9 0.00 0.00 0.00 72 1011.3
20260506033017 16 315 11.3 17.7 0.00 0.00 0.00 72 1011.2
20260506032517 16 315 8.0 16.1 0.00 0.00 0.00 72 1011.3
20260506032017 16 315 6.4 14.5 0.00 0.00 0.00 71 1011.2
20260506031516 16 315 6.4 12.9 0.00 0.00 0.00 71 1011.3
20260506031017 16 338 6.4 12.9 0.00 0.00 0.00 70 1011.3
20260506030517 16 0 6.4 9.7 0.00 0.00 0.00 69 1011.3
20260506030017 16 23 3.2 6.4 0.00 0.00 0.00 68 1011.2
20260506025536 16 45 1.6 6.4 0.00 0.00 0.00 67 1011.1
20260506025016 16 45 1.6 4.8 0.00 0.00 0.00 66 1011.1
20260506024516 16 45 1.6 6.4 0.00 0.00 0.00 66 1011.1
20260506024017 16 68 1.6 4.8 0.00 0.00 0.00 66 1011.0
20260506023517 16 90 1.6 6.4 0.00 0.00 0.00 67 1011.0
20260506023016 16 90 3.2 6.4 0.00 0.00 0.00 67 1011.0
20260506022517 16 68 3.2 6.4 0.00 0.00 0.00 66 1011.0
20260506022016 16 0.0 1.6 0.00 0.00 0.00 66 1011.0
20260506021516 17 338 1.6 4.8 0.00 0.00 0.00 65 1010.9
20260506021016 17 0.0 1.6 0.00 0.00 0.00 63 1011.0
20260506020516 17 0.0 3.2 0.00 0.00 0.00 63 1011.0
20260506020017 17 225 1.6 4.8 0.00 0.00 0.00 63 1011.0
20260506015516 16 225 1.6 4.8 0.00 0.00 0.00 63 1011.0
20260506015037 16 225 1.6 4.8 0.00 0.00 0.00 64 1011.0
20260506014516 17 248 3.2 6.4 0.00 0.00 0.00 64 1011.0
20260506014036 17 248 4.8 8.0 0.00 0.00 0.00 64 1011.1
20260506013517 17 225 4.8 9.7 0.00 0.00 0.00 64 1011.1
20260506013016 17 248 4.8 6.4 0.00 0.00 0.00 65 1011.1
20260506012537 17 315 1.6 4.8 0.00 0.00 0.00 65 1011.1
20260506012036 16 293 3.2 6.4 0.00 0.00 0.00 65 1011.0
20260506011517 16 0.0 0.0 0.00 0.00 0.00 66 1011.1
20260506011016 16 0.0 4.8 0.00 0.00 0.00 66 1011.1
20260506010537 16 0.0 0.0 0.00 0.00 0.00 67 1011.1
20260506010016 16 0.0 3.2 0.00 0.00 0.00 68 1011.1
20260506005517 16 0.0 0.0 0.00 0.00 0.00 68 1011.1
20260506005017 16 0.0 1.6 0.00 0.00 0.00 69 1011.1
20260506004516 16 270 1.6 4.8 0.00 0.00 0.00 69 1011.1
20260506004017 16 270 3.2 6.4 0.00 0.00 0.00 70 1011.1
20260506003537 16 270 3.2 9.7 0.00 0.00 0.00 71 1011.1